Vertical_Velocity
-2 -0 1 1 1 -3 -1 -0 1 -3 -2 -0 -1 2 0 1 0 -1 1 1 0 0 2 1 2 1 1 -0 1 1 1 3 -1 1 1 1 3 -1 0 -1 2 1 -1 -1 0 1 -0
-0 -2 -1 -2 -2 -1 -2 -0 -0 1 1 -1 2 -3 2 -0 1 1 -1 0 1 2 -1 -0 0 0 0 3 1 -2 -1 -1 -0 1 3 0 1 -1 1 -1 -0 2 -1 -2 -0 4 1
-1 -1 -2 1 -3 -3 -2 -2 -1 -0 -1 1 -1 4 -3 1 1 1 2 1 1 2 2 1 1 -1 -0 -3 2 0 2 1 1 2 0 -1 -0 -1 4 -1 4 1 -1 -1 -0 3 3
-1 -1 -0 -0 1 1 0 -1 -1 -0 0 0 -2 5 4 -1 1 2 3 3 2 1 1 2 0 -1 -2 0 2 3 1 -0 1 -1 1 0 2 1 1 2 -0 -0 -3 2 3 1 2
-1 -3 -2 -1 -2 0 0 1 1 1 -0 0 -1 0 3 5 -4 2 0 2 2 1 0 -0 0 -2 -1 1 1 1 1 0 -2 2 0 3 -2 2 0 1 -2 1 3 2 4 0 1
-1 0 -3 2 0 -0 0 -1 -1 2 3 2 2 -1 -1 1 1 0 2 0 0 1 0 -1 -2 -3 7 5 2 -1 1 2 2 -3 -4 4 -2 -1 1 1 7 1 1 1 -2 2 -1
1 3 -2 2 -2 -1 1 1 4 3 4 2 3 2 0 7 3 -4 2 1 0 -4 2 1 3 -4 -0 -0 2 1 1 -1 0 -0 -3 0 -15 2 8 -3 -3 4 -0 0 -3 5 -2
-1 1 2 -2 0 4 5 5 7 5 4 4 4 4 1 3 3 2 2 -0 2 -1 -1 1 1 1 1 1 2 3 2 1 2 5 -1 -5 -1 4 -2 -3 -1 -1 -1 5 3 1 0
1 1 0 1 0 1 1 -1 -1 1 2 3 4 3 4 4 4 4 3 -3 -1 -3 -3 3 3 1 3 0 -1 5 -0 3 3 -1 3 -4 -3 4 0 -1 2 3 -0 3 -4 5 -2
-1 -1 -2 -0 -1 -2 -1 1 1 3 3 2 1 3 3 4 5 3 3 4 6 2 -10 1 -2 -6 0 0 -9 5 -1 0 2 4 3 -7 -12 -1 4 3 4 0 5 1 2 -0 3
-6 -4 -4 -3 0 -2 -4 -0 -1 2 1 3 3 4 1 3 6 1 4 4 4 6 -16 -0 5 6 8 -4 15 -1 6 2 4 2 4 2 4 -0 -0 -2 1 -4 6 0 3 1 1
-6 -3 -4 -11 -5 -4 -4 -0 0 -1 1 -3 5 1 5 2 5 3 4 3 4 34 -32 -4 6 1 1 1 -1 4 -0 2 6 3 1 -4 4 -2 -1 7 2 -1 4 3 2 1 -16
-2 -7 -7 -1 -1 -3 -2 -1 -0 1 -1 1 2 -0 1 2 5 2 3 9 6 -32 14 7 3 1 1 4 3 2 5 2 2 3 4 4 2 2 2 -3 -2 -3 7 -2 -5 -6 -0
-4 -5 -5 -0 -0 -1 -2 -1 -1 -0 -0 -0 1 1 17 6 11 1 2 4 -12 14 13 7 5 6 -0 3 3 4 0 -2 2 1 -2 0 -3 8 8 -1 5 8 2 6 -1 -4 3
-3 -4 -4 -0 -1 -2 -1 -2 -2 0 -2 -1 -6 7 2 9 4 3 14 -9 5 21 3 0 12 -3 1 6 4 1 1 -2 -3 4 -0 -1 -12 9 2 5 5 3 -11 7 3 0 -0
-1 4 3 -2 -4 -1 -2 -0 2 -2 1 -1 -2 -5 2 4 3 2 2 3 9 -2 14 11 10 1 0 1 -9 -2 -1 7 3 2 -1 -3 -5 -1 3 2 -0 -1 11 -2 -2 -5 -5
-1 3 0 -3 -1 -3 -2 -2 -1 -0 2 -5 -0 -6 -7 -2 -1 -5 1 2 2 -1 1 -5 22 6 -0 4 3 3 -8 8 1 7 3 7 -2 2 0 -0 6 3 1 0 6 -3 -1
5 2 -4 -4 -2 -1 -2 -0 1 1 1 -2 1 -2 8 -3 -1 1 0 0 3 -3 0 -2 3 -1 -2 5 3 -5 -0 -0 4 5 -1 7 -1 -1 2 4 -1 -2 1 -1 -4 0 -4
3 -2 -3 -1 -2 -2 -6 -3 1 -0 -1 1 0 1 1 1 -1 2 1 -1 -4 1 2 -0 -2 0 0 16 -4 -2 -1 5 3 -0 -3 9 -7 3 -4 -2 0 -3 5 5 4 -1 -3
-1 -2 -2 0 -0 2 -0 -1 -2 -3 1 1 -0 1 2 2 5 5 8 3 -4 4 0 -1 -2 2 1 1 -3 -3 3 5 3 2 1 2 -6 -2 1 -2 2 -6 2 2 -2 -12 14
-4 -2 -1 0 -2 -2 -1 -1 -0 -4 -2 2 0 3 7 6 2 1 3 1 6 7 -1 -0 1 -0 -6 9 12 6 5 5 0 3 1 -5 0 -1 2 -3 -4 -2 2 -0 0 11 -13
-4 -2 -4 -3 -1 1 -0 2 -0 -2 -3 -3 2 1 1 3 2 5 -1 2 7 4 3 4 1 -0 -4 -3 1 -2 0 3 5 5 1 0 -4 2 -3 0 -1 -1 -3 1 1 -2 -3
-2 -3 -1 0 -0 -1 -1 -3 -2 0 0 1 -0 -1 2 -0 0 4 4 1 1 5 4 1 2 1 -1 3 6 6 0 -1 3 2 -0 -1 1 3 -5 3 -1 -23 17 2 1 0 3
-2 -2 -2 -3 -1 -1 -3 -3 -3 -3 -3 -1 -1 1 0 -1 2 3 3 2 3 3 2 2 -0 3 12 17 6 7 10 6 2 2 3 9 9 6 2 7 -25 20 6 7 -7 1 -1
-3 -3 -4 -4 -4 -4 -3 -1 -3 -3 -2 -3 -3 -1 0 1 2 2 2 2 2 1 2 4 2 0 2 2 3 -1 0 -1 11 7 7 6 6 5 -7 5 4 4 8 2 -5 3 1
-4 -4 -4 -3 -3 -2 -3 -4 -4 -3 -1 -1 -2 -2 -3 -2 -1 1 2 -0 -1 -0 2 1 1 1 3 4 -1 -1 1 5 -1 4 4 3 1 -4 7 -5 -4 8 4 3 -3 -0 2
-4 -3 -2 -0 -2 -2 -3 -2 0 1 2 -0 -0 0 -3 -3 0 -2 -1 -1 1 2 1 1 -1 -0 -1 3 1 2 2 1 -2 1 2 1 -1 -1 -0 -3 -4 6 5 0 -13 20 1
-1 -2 -4 -2 -2 -3 -5 -5 -5 -3 -0 0 1 -1 -1 2 2 -0 0 -0 -1 -1 0 1 0 5 -0 -1 -2 1 -1 3 1 6 7 3 -4 1 -3 -5 -6 3 3 -3 2 -1 2
-3 -3 -3 -2 -3 -2 -2 -1 -3 -4 -5 -4 -1 -1 -1 -1 1 0 3 2 2 0 -1 1 1 -0 -1 2 0 -6 -2 0 8 -1 4 -2 3 4 -0 2 -0 -1 -1 -2 -2 0 0
Height
5761 5759 5756 5754 5752 5751 5751 5750 5750 5749 5747 5746 5745 5746 5745 5745 5745 5745 5745 5746 5747 5748 5750 5752 5753 5755 5757 5758 5760 5761 5763 5764 5766 5767 5768 5769 5770 5770 5771 5772 5772 5774 5775 5775 5776 5777 5778
5754 5752 5749 5746 5744 5743 5741 5741 5740 5740 5739 5738 5738 5737 5738 5738 5738 5738 5738 5739 5740 5742 5743 5744 5746 5748 5750 5753 5754 5756 5758 5760 5761 5762 5764 5765 5766 5766 5767 5767 5769 5769 5769 5771 5771 5771 5773
5747 5744 5741 5739 5736 5734 5732 5731 5731 5730 5729 5728 5727 5727 5727 5728 5729 5730 5730 5731 5732 5734 5735 5737 5739 5741 5743 5747 5748 5750 5752 5754 5756 5757 5759 5760 5760 5761 5762 5763 5763 5763 5765 5765 5766 5766 5768
5740 5736 5734 5732 5729 5726 5723 5722 5721 5720 5718 5717 5716 5715 5714 5714 5718 5719 5721 5722 5723 5725 5727 5729 5731 5732 5735 5738 5741 5743 5745 5747 5749 5750 5752 5754 5755 5756 5757 5757 5757 5758 5759 5760 5761 5761 5763
5734 5729 5725 5722 5718 5716 5715 5712 5710 5708 5706 5705 5704 5704 5702 5702 5704 5708 5711 5713 5714 5715 5717 5719 5721 5723 5725 5731 5734 5736 5738 5740 5742 5744 5746 5748 5750 5751 5751 5752 5752 5752 5753 5753 5755 5755 5756
5727 5721 5715 5712 5709 5706 5704 5701 5699 5696 5694 5693 5693 5692 5692 5692 5693 5697 5700 5701 5703 5705 5707 5709 5712 5715 5719 5725 5726 5728 5731 5733 5735 5736 5739 5741 5743 5744 5745 5746 5748 5745 5746 5746 5747 5749 5750
5716 5711 5704 5700 5697 5693 5689 5686 5683 5682 5681 5679 5679 5681 5682 5682 5684 5686 5689 5691 5694 5696 5697 5700 5702 5703 5709 5713 5716 5719 5722 5725 5728 5729 5732 5733 5735 5739 5739 5738 5737 5739 5740 5740 5740 5743 5744
5706 5698 5691 5686 5681 5676 5671 5667 5664 5664 5664 5665 5665 5665 5668 5670 5673 5675 5678 5679 5681 5683 5686 5687 5690 5695 5698 5703 5706 5710 5713 5716 5719 5723 5723 5726 5728 5731 5731 5731 5732 5733 5733 5734 5735 5736 5737
5692 5684 5677 5669 5663 5658 5653 5650 5648 5647 5647 5648 5649 5650 5652 5656 5659 5662 5664 5667 5670 5672 5674 5677 5680 5683 5689 5693 5696 5700 5704 5706 5710 5712 5716 5717 5721 5721 5723 5723 5725 5726 5726 5726 5727 5729 5729
5680 5672 5664 5656 5649 5644 5640 5636 5633 5631 5631 5632 5635 5637 5639 5642 5646 5648 5652 5655 5657 5660 5661 5665 5670 5673 5678 5683 5685 5692 5694 5699 5701 5705 5706 5707 5710 5714 5715 5716 5717 5716 5718 5718 5718 5719 5720
5671 5663 5654 5647 5640 5633 5629 5626 5623 5619 5618 5618 5620 5623 5627 5630 5634 5637 5641 5644 5647 5650 5652 5655 5661 5665 5670 5673 5680 5683 5687 5689 5692 5694 5698 5701 5703 5705 5706 5707 5708 5708 5710 5709 5710 5710 5711
5665 5656 5649 5642 5633 5626 5620 5616 5613 5610 5608 5609 5610 5612 5615 5618 5623 5627 5630 5633 5639 5644 5639 5644 5649 5655 5660 5665 5670 5674 5677 5680 5683 5686 5688 5690 5693 5695 5697 5698 5698 5699 5702 5702 5702 5702 5699
5658 5652 5645 5636 5629 5621 5615 5611 5607 5604 5601 5600 5600 5603 5606 5609 5613 5616 5620 5626 5628 5628 5638 5638 5643 5649 5653 5656 5660 5663 5668 5671 5674 5676 5679 5682 5684 5685 5687 5687 5688 5690 5694 5693 5693 5692 5693
5655 5648 5639 5631 5625 5617 5611 5606 5601 5598 5596 5594 5593 5596 5597 5599 5604 5607 5610 5616 5615 5625 5630 5633 5637 5640 5644 5648 5652 5655 5657 5660 5664 5668 5671 5672 5675 5675 5677 5678 5680 5682 5684 5686 5684 5686 5688
5650 5644 5635 5626 5618 5612 5607 5602 5597 5593 5591 5590 5589 5590 5593 5595 5598 5601 5603 5607 5612 5617 5620 5626 5628 5631 5636 5640 5644 5645 5648 5652 5656 5659 5661 5662 5661 5665 5666 5668 5671 5673 5674 5679 5678 5678 5678
5646 5640 5632 5623 5613 5607 5602 5597 5593 5589 5587 5586 5586 5586 5589 5590 5593 5595 5598 5601 5606 5608 5611 5616 5620 5624 5628 5630 5634 5637 5639 5646 5648 5651 5652 5653 5653 5655 5657 5659 5661 5663 5668 5668 5668 5670 5670
5641 5637 5629 5620 5612 5605 5599 5594 5589 5586 5584 5583 5582 5583 5584 5585 5587 5589 5592 5597 5599 5602 5605 5608 5611 5616 5619 5623 5625 5629 5632 5638 5639 5642 5642 5642 5643 5648 5650 5652 5655 5657 5658 5660 5663 5662 5663
5636 5633 5625 5617 5611 5604 5598 5592 5588 5583 5581 5581 5579 5578 5579 5579 5582 5584 5586 5589 5593 5594 5595 5598 5603 5607 5611 5613 5616 5619 5624 5627 5630 5632 5631 5634 5635 5639 5642 5645 5646 5648 5651 5652 5653 5655 5656
5633 5628 5622 5615 5609 5604 5597 5591 5586 5581 5577 5575 5574 5575 5575 5576 5578 5581 5582 5584 5585 5587 5588 5591 5595 5600 5603 5605 5608 5611 5615 5619 5620 5620 5622 5626 5625 5629 5632 5635 5637 5639 5644 5645 5645 5645 5644
5629 5625 5620 5614 5608 5604 5597 5592 5585 5579 5575 5572 5571 5571 5573 5574 5575 5577 5578 5578 5577 5579 5581 5584 5589 5592 5595 5597 5599 5603 5606 5608 5610 5612 5613 5615 5617 5620 5623 5625 5628 5629 5632 5633 5633 5632 5635
5628 5623 5618 5613 5608 5602 5596 5591 5586 5579 5574 5571 5569 5568 5568 5570 5571 5571 5571 5571 5570 5571 5573 5577 5581 5584 5586 5588 5591 5594 5597 5599 5600 5601 5603 5605 5607 5610 5613 5614 5616 5618 5620 5621 5622 5624 5622
5627 5622 5616 5610 5604 5599 5595 5589 5585 5580 5574 5571 5568 5566 5566 5565 5565 5566 5566 5566 5566 5567 5569 5572 5574 5576 5577 5580 5584 5585 5587 5589 5592 5594 5595 5597 5599 5601 5602 5603 5604 5605 5608 5609 5610 5611 5611
5625 5620 5615 5609 5604 5598 5592 5587 5582 5579 5575 5571 5569 5566 5563 5561 5560 5560 5560 5561 5561 5563 5564 5566 5567 5568 5570 5573 5575 5576 5578 5580 5583 5585 5586 5588 5589 5590 5591 5592 5592 5591 5598 5599 5598 5598 5598
5622 5617 5612 5608 5602 5596 5591 5586 5581 5577 5573 5569 5565 5563 5560 5557 5556 5554 5553 5554 5554 5556 5557 5558 5558 5561 5564 5564 5565 5568 5569 5570 5572 5574 5576 5577 5578 5578 5579 5580 5578 5582 5585 5584 5583 5585 5586
5620 5614 5609 5604 5600 5595 5590 5585 5580 5576 5572 5568 5564 5560 5557 5554 5551 5549 5548 5547 5546 5546 5548 5549 5550 5552 5553 5553 5555 5556 5558 5559 5561 5562 5564 5565 5565 5565 5565 5566 5568 5568 5571 5572 5571 5576 5576
5615 5611 5607 5602 5598 5593 5588 5583 5578 5573 5569 5565 5561 5558 5555 5552 5549 5546 5544 5541 5540 5539 5540 5539 5539 5540 5541 5543 5543 5544 5546 5548 5549 5550 5551 5550 5550 5552 5552 5552 5554 5557 5559 5561 5562 5564 5567
5613 5609 5605 5600 5596 5591 5586 5581 5576 5571 5566 5562 5557 5553 5550 5547 5545 5542 5539 5537 5536 5534 5533 5532 5531 5531 5530 5532 5532 5533 5534 5535 5536 5538 5541 5540 5541 5542 5543 5542 5543 5547 5550 5550 5551 5559 5557
5609 5605 5600 5595 5590 5585 5580 5574 5569 5565 5560 5555 5550 5546 5543 5540 5539 5536 5534 5532 5530 5528 5527 5527 5525 5525 5524 5524 5524 5525 5525 5527 5527 5530 5532 5533 5532 5534 5534 5533 5533 5538 5538 5539 5541 5542 5543
5605 5600 5595 5590 5584 5579 5573 5567 5561 5555 5549 5545 5542 5537 5532 5530 5529 5527 5525 5523 5522 5520 5519 5519 5518 5517 5516 5516 5516 5516 5516 5517 5519 5519 5522 5523 5524 5525 5525 5525 5523 5522 5525 5526 5527 5527 5528